[[{"header":{"parameterUnit":"m.s-1","parameterCategory":2,"la1":30.2992,"la2":30.254,"lo1":-89.0895,"lo2":-89.0443,"dy":0.0025,"dx":0.0025,"nx":19,"ny":19,"refTime":"2026-05-18T03:00:00:Z","depth":"0","parameterNumber":2,"parameterNumberName":"U-component_of_CURRENTS"},"data":[0,0,0,-0.2145,-0.2147,-0.2257,-0.2257,-0.2331,-0.2332,0,0,0,0,0,0,0,0,0,0,0,-0.2088,-0.2089,-0.2145,-0.2148,-0.2256,-0.2257,-0.2331,-0.2332,0,0,0,0,0,0,0,0,0,0,0,-0.2088,-0.2088,-0.2089,-0.2148,-0.2256,-0.2257,-0.2331,-0.2264,0,0,0,0,0,0,0,0,0,0,-0.2165,-0.2107,-0.2088,-0.2089,-0.2149,-0.2256,-0.2257,-0.2261,-0.2268,-0.2265,0,-0.2275,0,-0.2315,-0.2336,-0.2336,0,0,0,-0.2142,-0.2101,-0.2152,-0.2089,-0.215,-0.2256,-0.2206,-0.2265,-0.2273,-0.2273,-0.2276,-0.228,-0.2316,-0.2336,-0.2336,-0.2538,-0.254,0,0,-0.2136,-0.2089,-0.2147,-0.2157,-0.2169,-0.2202,-0.2209,-0.227,-0.2259,-0.2277,-0.2283,-0.2317,-0.2336,-0.2337,-0.2536,-0.2539,0,0,0,-0.2123,-0.2084,-0.2135,-0.2152,-0.2183,-0.2206,-0.2214,-0.2256,-0.2279,-0.2284,-0.2318,-0.2337,-0.2337,-0.2534,-0.2537,-0.2605,0,0,0,-0.2119,-0.2078,-0.2132,-0.2102,-0.2182,-0.2227,-0.2197,-0.2274,-0.2284,-0.2318,-0.2337,-0.2338,-0.2532,-0.2536,-0.2598,-0.2627,0,0,0,-0.2085,-0.2074,-0.2089,-0.21,-0.2155,-0.2228,-0.2253,-0.2277,-0.2304,-0.2336,-0.2338,-0.2531,-0.2535,-0.2593,-0.2619,-0.2662,0,0,0,-0.2032,-0.2049,-0.2087,-0.2131,-0.2154,-0.2281,-0.2253,-0.2328,-0.2362,-0.2337,-0.2533,-0.2537,-0.2591,-0.2614,-0.2657,-0.2403,-0.2405,0,0,-0.2032,-0.2047,-0.2084,-0.2123,-0.2242,-0.2266,-0.2417,-0.2436,-0.243,-0.2501,-0.2507,-0.26,-0.2618,-0.2661,-0.2646,-0.264,0,0,0,-0.2074,-0.2092,-0.2136,-0.2213,-0.2314,-0.244,-0.2484,-0.2542,-0.2626,-0.2472,-0.2668,-0.2678,-0.2701,-0.2541,-0.2538,-0.2342,-0.2556,-0.2556,-0.2555,-0.1999,-0.2095,-0.2175,-0.2306,-0.2403,-0.2569,-0.2675,-0.2767,-0.2724,-0.2804,-0.2782,-0.2931,-0.2765,-0.2759,-0.2564,-0.284,-0.2841,-0.2841,-0.2841,-0.2015,-0.2062,-0.2213,-0.2314,-0.249,-0.2619,-0.2858,-0.2889,-0.302,-0.2967,-0.2984,-0.2682,-0.2758,-0.2551,-0.2847,-0.2846,-0.2845,-0.2844,-0.2844,-0.1954,-0.199,-0.2072,-0.2239,-0.2427,-0.2632,-0.2789,-0.2955,-0.3064,-0.3112,-0.2884,-0.2879,-0.2648,-0.3085,-0.3085,-0.3085,-0.3086,-0.3086,-0.3086,-0.1831,-0.1931,-0.1959,-0.2154,-0.2244,-0.2431,-0.273,-0.2836,-0.2936,-0.2956,-0.2953,-0.2677,-0.3004,-0.2939,-0.3092,-0.3091,-0.309,-0.309,-0.3089,-0.1719,-0.1733,-0.1782,-0.1843,-0.2055,-0.2107,-0.2427,-0.2585,-0.2741,-0.2749,-0.2532,-0.2872,-0.2818,-0.2817,-0.2748,-0.2843,-0.2843,-0.2843,-0.2843,-0.1584,-0.1615,-0.1611,-0.167,-0.1792,-0.196,-0.1912,-0.206,-0.2216,-0.2157,-0.2329,-0.2182,-0.22,-0.2105,-0.2119,-0.2036,-0.1948,-0.1947,-0.1946,-0.1476,-0.1501,-0.1446,-0.1534,-0.1666,-0.1716,-0.1559,-0.1471,-0.1635,-0.1903,-0.212,-0.2157,-0.1941,-0.1985,-0.1831,-0.1867,-0.1729,0,0]},{"header":{"parameterUnit":"m.s-1","parameterCategory":2,"la1":30.2992,"la2":30.254,"lo1":-89.0895,"lo2":-89.0443,"dy":0.0025,"dx":0.0025,"nx":19,"ny":19,"refTime":"2026-05-18T03:00:00:Z","depth":"0","parameterNumber":3,"parameterNumberName":"V-component_of_CURRENTS"},"data":[0,0,0,0.023,0.0232,0.0384,0.0385,0.0574,0.0575,0,0,0,0,0,0,0,0,0,0,0,0.0172,0.0172,0.0229,0.0232,0.0384,0.0385,0.0574,0.0575,0,0,0,0,0,0,0,0,0,0,0,0.0172,0.0172,0.0172,0.0233,0.0384,0.0385,0.0573,0.0466,0,0,0,0,0,0,0,0,0,0,0.0322,0.0254,0.0172,0.0172,0.0233,0.0384,0.0385,0.0461,0.0473,0.0495,0,0.05,0,0.0533,0.0585,0.0586,0,0,0,0.0258,0.0244,0.0287,0.0172,0.0234,0.0383,0.0323,0.0468,0.0481,0.051,0.0503,0.051,0.0536,0.0586,0.0587,0.0597,0.0596,0,0,0.0249,0.0205,0.0278,0.0294,0.0249,0.0318,0.0327,0.0476,0.0477,0.0503,0.0515,0.0539,0.0587,0.0588,0.0598,0.0597,0,0,0,0.0208,0.0199,0.0239,0.0286,0.0309,0.0321,0.0332,0.0471,0.0484,0.0517,0.0541,0.0588,0.059,0.0599,0.0597,0.0402,0,0,0,0.0204,0.0174,0.0235,0.0212,0.0306,0.0391,0.0323,0.0474,0.0492,0.054,0.0588,0.0592,0.06,0.0598,0.041,0.0286,0,0,0,0.0169,0.0171,0.0181,0.0208,0.0264,0.0389,0.0413,0.0479,0.0506,0.0586,0.0592,0.0601,0.0598,0.0417,0.03,0.0166,0,0,0,0.0132,0.0107,0.0179,0.0153,0.0262,0.0283,0.0413,0.0458,0.0513,0.0589,0.06,0.0597,0.0419,0.0308,0.0175,0.0381,0.0356,0,0,0.0074,0.0099,0.008,0.0148,0.0115,0.0266,0.0226,0.0365,0.0484,0.0558,0.0559,0.0407,0.0301,0.0168,0.0239,0.0218,0,0,0,0.0044,0.0022,0.0027,0.0028,0.008,0.0082,0.023,0.0278,0.0355,0.0502,0.0412,0.035,0.0273,0.0417,0.04,0.0768,0.0586,0.0586,0.0587,-0.0094,-0.0072,-0.0132,-0.0112,-0.0106,-0.0033,-0.0033,0.0059,0.0225,0.0217,0.0196,-0.0036,0.0118,0.0107,0.0484,0.0224,0.0224,0.0223,0.0223,-0.0227,-0.0259,-0.0272,-0.0314,-0.0307,-0.0317,-0.027,-0.0183,-0.0183,0.0001,-0.0063,0.0211,0.0077,0.0486,0.021,0.0212,0.0214,0.0215,0.0216,-0.031,-0.0325,-0.0358,-0.0448,-0.0525,-0.0487,-0.0608,-0.0509,-0.0387,-0.0449,-0.0228,-0.0219,0.0135,-0.0442,-0.0444,-0.0445,-0.0446,-0.0447,-0.0447,-0.036,-0.0403,-0.0491,-0.0584,-0.0655,-0.0746,-0.0788,-0.0818,-0.0657,-0.0458,-0.0454,0.012,-0.0239,-0.0219,-0.0465,-0.0462,-0.046,-0.0458,-0.0457,-0.042,-0.0436,-0.058,-0.0671,-0.0875,-0.1053,-0.1094,-0.1044,-0.0995,-0.0896,0.0011,-0.0449,-0.0374,-0.0353,-0.0335,-0.0598,-0.0598,-0.0598,-0.0598,-0.0445,-0.047,-0.0661,-0.0838,-0.106,-0.1196,-0.1357,-0.1076,-0.0383,0.0141,0.0156,0.044,0.0429,0.0567,0.0567,0.0612,0.0595,0.0597,0.0598,-0.0489,-0.054,-0.0683,-0.0865,-0.1133,-0.1356,-0.1455,-0.0785,0.0447,0.0677,0.0611,0.056,0.101,0.0964,0.1218,0.1188,0.1275,0,0]}],[{"header":{"parameterUnit":"m.s-1","parameterCategory":2,"la1":30.2992,"la2":30.254,"lo1":-89.0895,"lo2":-89.0443,"dy":0.0025,"dx":0.0025,"nx":19,"ny":19,"refTime":"2026-05-18T03:00:00:Z","depth":"2","parameterNumber":2,"parameterNumberName":"U-component_of_CURRENTS"},"data":[0,0,0,-0.249,-0.2492,-0.2591,-0.2592,-0.255,-0.2549,0,0,0,0,0,0,0,0,0,0,0,-0.2432,-0.2433,-0.2489,-0.2493,-0.2591,-0.2592,-0.255,-0.2549,0,0,0,0,0,0,0,0,0,0,0,-0.2432,-0.2433,-0.2433,-0.2493,-0.2591,-0.2592,-0.255,-0.2514,0,0,0,0,0,0,0,0,0,0,-0.2437,-0.2391,-0.2432,-0.2433,-0.2494,-0.2591,-0.2592,-0.2514,-0.2516,-0.2462,0,-0.2477,0,-0.2526,-0.2544,-0.2544,0,0,0,-0.2477,-0.2389,-0.2445,-0.2433,-0.2495,-0.2591,-0.2542,-0.2516,-0.2518,-0.2464,-0.2478,-0.2478,-0.2525,-0.2544,-0.2543,-0.2392,-0.2391,0,0,-0.2471,-0.2418,-0.2444,-0.2447,-0.2517,-0.2539,-0.2546,-0.2519,-0.2497,-0.2478,-0.2478,-0.2524,-0.2543,-0.2543,-0.2393,-0.2392,0,0,0,-0.2466,-0.2414,-0.2473,-0.2446,-0.2486,-0.2543,-0.255,-0.2498,-0.2527,-0.2479,-0.2524,-0.2543,-0.2542,-0.2394,-0.2392,-0.2502,0,0,0,-0.2462,-0.2414,-0.2471,-0.2435,-0.2487,-0.2512,-0.2528,-0.2528,-0.2528,-0.2524,-0.2543,-0.2541,-0.2395,-0.2393,-0.2502,-0.2598,0,0,0,-0.2428,-0.2409,-0.2427,-0.2433,-0.2491,-0.2515,-0.2541,-0.253,-0.2555,-0.2544,-0.2541,-0.2396,-0.2394,-0.2502,-0.2594,-0.2708,0,0,0,-0.2363,-0.2401,-0.2425,-0.2475,-0.249,-0.2546,-0.2542,-0.2584,-0.2581,-0.2542,-0.2395,-0.2393,-0.2502,-0.2592,-0.2704,-0.2431,-0.2426,0,0,-0.239,-0.2402,-0.244,-0.2467,-0.254,-0.2532,-0.256,-0.2574,-0.2506,-0.2392,-0.239,-0.2502,-0.2594,-0.2707,-0.2282,-0.2282,0,0,0,-0.2436,-0.2451,-0.2479,-0.2522,-0.2565,-0.2591,-0.2578,-0.257,-0.2512,-0.2496,-0.2418,-0.2471,-0.2542,-0.2364,-0.2362,-0.238,-0.2381,-0.2381,-0.2381,-0.2352,-0.2429,-0.2484,-0.2556,-0.2578,-0.2615,-0.2653,-0.2604,-0.2511,-0.2488,-0.2497,-0.2574,-0.2375,-0.2374,-0.2396,-0.2396,-0.2397,-0.2397,-0.2397,-0.2379,-0.2413,-0.249,-0.2571,-0.261,-0.2615,-0.2664,-0.2657,-0.2664,-0.2532,-0.2594,-0.2405,-0.2379,-0.2404,-0.2403,-0.2402,-0.2401,-0.2401,-0.24,-0.2302,-0.2339,-0.24,-0.2508,-0.258,-0.263,-0.2732,-0.2759,-0.2764,-0.2826,-0.2599,-0.2592,-0.2742,-0.2818,-0.2819,-0.282,-0.282,-0.2821,-0.2821,-0.2189,-0.2268,-0.2316,-0.2445,-0.2512,-0.2615,-0.2756,-0.2823,-0.2793,-0.2714,-0.2711,-0.2717,-0.2704,-0.2763,-0.2835,-0.2833,-0.2831,-0.283,-0.2829,-0.2097,-0.2118,-0.22,-0.2269,-0.2446,-0.2458,-0.2659,-0.2664,-0.2775,-0.272,-0.2662,-0.2662,-0.2625,-0.2617,-0.267,-0.2716,-0.2716,-0.2716,-0.2716,-0.1984,-0.2023,-0.2079,-0.2171,-0.229,-0.2375,-0.2285,-0.2199,-0.226,-0.217,-0.2194,-0.1967,-0.1983,-0.1899,-0.1908,-0.1942,-0.1799,-0.1798,-0.1796,-0.19,-0.1945,-0.1935,-0.2053,-0.2188,-0.2203,-0.1957,-0.1601,-0.1463,-0.176,-0.2035,-0.2654,-0.2373,-0.2379,-0.2288,-0.2288,-0.2358,0,0]},{"header":{"parameterUnit":"m.s-1","parameterCategory":2,"la1":30.2992,"la2":30.254,"lo1":-89.0895,"lo2":-89.0443,"dy":0.0025,"dx":0.0025,"nx":19,"ny":19,"refTime":"2026-05-18T03:00:00:Z","depth":"2","parameterNumber":3,"parameterNumberName":"V-component_of_CURRENTS"},"data":[0,0,0,-0.0864,-0.0862,-0.069,-0.0689,-0.0363,-0.036,0,0,0,0,0,0,0,0,0,0,0,-0.0928,-0.0928,-0.0864,-0.0861,-0.069,-0.0688,-0.0364,-0.036,0,0,0,0,0,0,0,0,0,0,0,-0.0929,-0.0928,-0.0928,-0.0861,-0.069,-0.0688,-0.0364,-0.0513,0,0,0,0,0,0,0,0,0,0,-0.0689,-0.0782,-0.0928,-0.0928,-0.086,-0.069,-0.0688,-0.052,-0.0503,-0.042,0,-0.042,0,-0.039,-0.0339,-0.0338,0,0,0,-0.083,-0.0797,-0.0748,-0.0928,-0.0859,-0.0691,-0.0758,-0.0511,-0.0492,-0.0397,-0.0415,-0.0403,-0.0385,-0.0337,-0.0335,-0.0034,-0.0033,0,0,-0.0839,-0.0886,-0.0763,-0.0738,-0.0844,-0.0764,-0.0753,-0.05,-0.0491,-0.0414,-0.0396,-0.038,-0.0335,-0.0332,-0.0035,-0.0034,0,0,0,-0.0888,-0.0893,-0.0852,-0.075,-0.0732,-0.076,-0.0747,-0.0502,-0.0489,-0.0392,-0.0376,-0.0333,-0.0329,-0.0036,-0.0035,-0.0124,0,0,0,-0.0892,-0.0923,-0.0857,-0.088,-0.0739,-0.0632,-0.0755,-0.0507,-0.0478,-0.0377,-0.0333,-0.0326,-0.0037,-0.0035,-0.0124,-0.0211,0,0,0,-0.0931,-0.0926,-0.0916,-0.0884,-0.0823,-0.0636,-0.0607,-0.05,-0.0468,-0.0338,-0.0325,-0.0038,-0.0036,-0.0124,-0.0208,-0.0261,0,0,0,-0.0968,-0.0967,-0.0918,-0.0886,-0.0825,-0.0646,-0.0608,-0.0486,-0.038,-0.0331,-0.0037,-0.0035,-0.0124,-0.0206,-0.0258,-0.0087,-0.0084,0,0,-0.0986,-0.0971,-0.0943,-0.0895,-0.0759,-0.0666,-0.0495,-0.0378,-0.0313,-0.0109,-0.0102,-0.0124,-0.0208,-0.026,0.0039,0.0037,0,0,0,-0.0958,-0.0949,-0.0892,-0.0807,-0.0659,-0.0524,-0.0372,-0.0318,-0.0202,-0.0246,-0.0054,-0.0104,-0.0135,-0.0023,-0.0023,-0.0025,-0.0025,-0.0025,-0.0025,-0.1046,-0.0949,-0.0876,-0.0731,-0.0603,-0.0404,-0.032,-0.0209,-0.0128,-0.0111,-0.0123,-0.0156,-0.003,-0.003,-0.0034,-0.0034,-0.0035,-0.0035,-0.0035,-0.1068,-0.1028,-0.088,-0.0797,-0.0613,-0.0467,-0.0259,-0.0232,-0.0165,-0.0109,-0.0134,-0.0055,-0.0036,-0.0041,-0.004,-0.0039,-0.0038,-0.0038,-0.0038,-0.1138,-0.1105,-0.1061,-0.0924,-0.0785,-0.0574,-0.0527,-0.04,-0.0293,-0.0308,-0.0186,-0.0181,-0.0282,-0.0332,-0.0333,-0.0333,-0.0334,-0.0334,-0.0334,-0.1246,-0.1181,-0.1184,-0.1051,-0.0989,-0.089,-0.0722,-0.0667,-0.046,-0.0288,-0.0285,-0.0257,-0.0247,-0.0296,-0.0343,-0.0342,-0.0341,-0.034,-0.0339,-0.1319,-0.134,-0.1335,-0.131,-0.1172,-0.1107,-0.0972,-0.0742,-0.0651,-0.0512,-0.0241,-0.024,-0.0209,-0.0203,-0.0247,-0.028,-0.028,-0.028,-0.028,-0.1406,-0.1401,-0.1435,-0.1409,-0.1335,-0.1191,-0.1074,-0.0698,-0.0356,-0.0101,-0.011,0.0024,0.002,0.0069,0.007,0.0033,0.0072,0.0072,0.0073,-0.145,-0.1465,-0.15,-0.1475,-0.1377,-0.1283,-0.1068,-0.051,0.0032,0.0079,-0.0125,-0.0242,-0.0058,-0.0061,0.0009,0.0011,-0.0049,0,0]}],[{"header":{"parameterUnit":"m.s-1","parameterCategory":2,"la1":30.2992,"la2":30.254,"lo1":-89.0895,"lo2":-89.0443,"dy":0.0025,"dx":0.0025,"nx":19,"ny":19,"refTime":"2026-05-18T03:00:00:Z","depth":"4","parameterNumber":2,"parameterNumberName":"U-component_of_CURRENTS"},"data":[0,0,0,-0.1074,-0.1078,-0.1208,-0.1208,-0.1248,-0.1249,0,0,0,0,0,0,0,0,0,0,0,-0.1031,-0.1033,-0.1074,-0.1078,-0.1208,-0.1208,-0.1248,-0.1249,0,0,0,0,0,0,0,0,0,0,0,-0.103,-0.1032,-0.1034,-0.1079,-0.1208,-0.1208,-0.1248,-0.1175,0,0,0,0,0,0,0,0,0,0,-0.1062,-0.1046,-0.1032,-0.1034,-0.108,-0.1208,-0.1208,-0.1173,-0.1179,-0.1162,0,-0.1212,0,-0.1241,-0.1251,-0.1251,0,0,0,-0.1051,-0.104,-0.1085,-0.1035,-0.1081,-0.1207,-0.1141,-0.1177,-0.1185,-0.1171,-0.1213,-0.1216,-0.1242,-0.1251,-0.1251,-0.1303,-0.1303,0,0,-0.1044,-0.1035,-0.1081,-0.1092,-0.1152,-0.1138,-0.1146,-0.1183,-0.1198,-0.1214,-0.1217,-0.1243,-0.1252,-0.1252,-0.1303,-0.1303,0,0,0,-0.1041,-0.103,-0.1076,-0.1089,-0.1129,-0.1142,-0.1151,-0.1196,-0.1216,-0.1218,-0.1243,-0.1252,-0.1252,-0.1302,-0.1303,-0.1374,0,0,0,-0.1036,-0.1031,-0.1073,-0.1066,-0.113,-0.1181,-0.1163,-0.1213,-0.1219,-0.1243,-0.1252,-0.1252,-0.1302,-0.1302,-0.1371,-0.14,0,0,0,-0.1018,-0.1028,-0.1057,-0.1066,-0.1136,-0.1182,-0.1203,-0.1215,-0.1234,-0.1251,-0.1253,-0.1302,-0.1302,-0.1369,-0.1395,-0.1425,0,0,0,-0.0982,-0.1014,-0.1058,-0.11,-0.1135,-0.1208,-0.1203,-0.1257,-0.1278,-0.1252,-0.1302,-0.1303,-0.1368,-0.1393,-0.1422,-0.122,0,0,0,-0.0988,-0.1015,-0.1035,-0.1077,-0.114,-0.1186,-0.1259,-0.1291,-0.1276,-0.1275,-0.1278,-0.1372,-0.1395,-0.1424,-0.1263,0,0,0,0,-0.1012,-0.1041,-0.1069,-0.1121,-0.1179,-0.127,-0.1308,-0.1326,-0.1353,-0.1299,-0.1366,-0.1379,-0.1395,-0.1269,-0.1306,-0.1306,-0.1306,-0.1306,-0.1306,-0.0979,-0.1018,-0.1072,-0.1151,-0.1217,-0.132,-0.138,-0.1408,-0.1392,-0.1415,-0.1433,-0.1498,-0.1367,-0.1428,-0.1429,-0.1429,-0.1429,-0.143,-0.143,-0.0971,-0.0993,-0.1091,-0.1164,-0.1273,-0.1351,-0.1457,-0.1477,-0.1524,-0.1489,-0.1502,-0.1347,-0.1437,-0.1435,-0.1434,-0.1433,-0.1433,-0.1432,-0.1432,-0.0921,-0.0941,-0.1013,-0.1104,-0.1262,-0.1398,-0.1494,-0.156,-0.1576,-0.161,-0.1462,-0.1542,-0.154,-0.1619,-0.1619,-0.1619,-0.162,-0.162,-0.162,-0.0815,-0.089,-0.0943,-0.1081,-0.1172,-0.1325,-0.1514,-0.1547,-0.1606,-0.1517,-0.1633,-0.1561,-0.1555,-0.155,-0.1624,-0.1623,-0.1623,-0.1623,-0.1622,-0.0673,-0.0746,-0.079,-0.0874,-0.1101,-0.1217,-0.1431,-0.1476,-0.1499,-0.1453,-0.1455,-0.1462,-0.1415,-0.1412,-0.14,-0.1434,-0.1431,-0.1429,0,-0.055,-0.0604,-0.0651,-0.0769,-0.0908,-0.1175,-0.1203,-0.1291,-0.1332,-0.1284,-0.1484,-0.1485,-0.1489,-0.1434,-0.1428,-0.1412,0,0,0,-0.0396,-0.0481,-0.0439,-0.0647,-0.0841,-0.1053,-0.1214,-0.1188,-0.1331,-0.1292,-0.1371,-0.1386,-0.1528,-0.1637,-0.1581,-0.1574,-0.1562,0,0]},{"header":{"parameterUnit":"m.s-1","parameterCategory":2,"la1":30.2992,"la2":30.254,"lo1":-89.0895,"lo2":-89.0443,"dy":0.0025,"dx":0.0025,"nx":19,"ny":19,"refTime":"2026-05-18T03:00:00:Z","depth":"4","parameterNumber":3,"parameterNumberName":"V-component_of_CURRENTS"},"data":[0,0,0,-0.0211,-0.021,-0.0174,-0.0173,-0.0059,-0.0058,0,0,0,0,0,0,0,0,0,0,0,-0.0225,-0.0225,-0.0211,-0.021,-0.0174,-0.0173,-0.0059,-0.0058,0,0,0,0,0,0,0,0,0,0,0,-0.0225,-0.0225,-0.0226,-0.021,-0.0174,-0.0173,-0.006,-0.0101,0,0,0,0,0,0,0,0,0,0,-0.0144,-0.017,-0.0225,-0.0226,-0.021,-0.0174,-0.0173,-0.0103,-0.0098,-0.006,0,-0.0067,0,-0.0062,-0.005,-0.005,0,0,0,-0.0198,-0.0175,-0.0168,-0.0226,-0.021,-0.0174,-0.0187,-0.0101,-0.0095,-0.0053,-0.0065,-0.0061,-0.0061,-0.0049,-0.0049,0.0094,0.0094,0,0,-0.02,-0.021,-0.0173,-0.0165,-0.0214,-0.0188,-0.0186,-0.0098,-0.0094,-0.0065,-0.0059,-0.0059,-0.0048,-0.0048,0.0093,0.0094,0,0,0,-0.0214,-0.0211,-0.0207,-0.0169,-0.0169,-0.0187,-0.0185,-0.0098,-0.0098,-0.0058,-0.0057,-0.0048,-0.0046,0.0092,0.0093,0.0073,0,0,0,-0.0215,-0.022,-0.0209,-0.0213,-0.0172,-0.0142,-0.0186,-0.0104,-0.0094,-0.0058,-0.0048,-0.0045,0.0091,0.0093,0.0072,0.0043,0,0,0,-0.0225,-0.0221,-0.0222,-0.0214,-0.0204,-0.0144,-0.0139,-0.0102,-0.0094,-0.0049,-0.0045,0.0091,0.0093,0.0071,0.0042,0.012,0,0,0,-0.0227,-0.0252,-0.0223,-0.0254,-0.0204,-0.0183,-0.0139,-0.0118,-0.0087,-0.0047,0.0092,0.0093,0.0071,0.0042,0.0118,0.0033,0,0,0,-0.0264,-0.0256,-0.0279,-0.0252,-0.0258,-0.0187,-0.0141,-0.0088,-0.004,0.0068,0.0071,0.0072,0.0042,0.012,0.0127,0,0,0,0,-0.0295,-0.031,-0.0306,-0.0307,-0.027,-0.0194,-0.0127,-0.0064,0.0033,-0.0015,0.011,0.0092,0.0142,0.009,0.0101,0.0101,0.01,0.01,0.01,-0.0339,-0.0342,-0.0363,-0.0341,-0.0304,-0.0191,-0.0112,-0.0001,0.0039,0.0093,0.0105,0.0184,0.0129,0.015,0.015,0.015,0.015,0.015,0.015,-0.0408,-0.0425,-0.0401,-0.0428,-0.0332,-0.0271,-0.008,-0.0015,0.0145,0.0142,0.0193,0.0105,0.0149,0.0149,0.0149,0.0149,0.0149,0.0149,0.0149,-0.0443,-0.0447,-0.048,-0.0497,-0.0436,-0.0313,-0.0191,-0.005,0.0109,0.0164,0.0168,0.0197,0.0169,0.021,0.021,0.021,0.021,0.0211,0.0211,-0.0461,-0.0486,-0.0555,-0.0557,-0.0548,-0.0469,-0.0257,-0.0124,0.0057,0.0139,0.0169,0.0205,0.0203,0.0176,0.0214,0.0213,0.0213,0.0213,0.0213,-0.0476,-0.0524,-0.062,-0.0656,-0.0641,-0.0571,-0.0398,-0.0123,0.0028,0.0159,0.0163,0.0164,0.0174,0.0174,0.0144,0.0175,0.0174,0.0173,0,-0.0481,-0.0517,-0.0649,-0.0709,-0.0697,-0.061,-0.0425,-0.0236,-0.0004,-0.0029,0.0036,0.0027,0.0032,0.0028,0.0027,-0.0016,0,0,0,-0.0473,-0.0541,-0.0603,-0.0709,-0.0704,-0.0516,-0.0367,-0.0271,-0.0075,0.0085,0.015,0.0156,0.014,0.0224,0.0245,0.0242,0.02,0,0]}]]